Kars, Turkey

5:55 AM +03 on August 22, 2017 (GMT +0300)
Kars

Weather History for LTCF - March, 2013

Change the Weather History Date:

Tuesday, March 5, 2013

  Actual Average Record
Temperature  
Mean Temperature 22 °F -  
Max Temperature 28 °F 39 °F - ()
Min Temperature 14 °F 20 °F - ()
Degree Days  
Heating Degree Days 44    
Moisture  
Dew Point 14 °F    
Average Humidity 69    
Maximum Humidity 100    
Minimum Humidity 50    
Precipitation  
Precipitation 0.00 in 0.04 in - ()
Sea Level Pressure  
Sea Level Pressure 29.88 in    
Wind  
Wind Speed 9 mph ()    
Max Wind Speed 28 mph    
Max Gust Speed 45 mph    
Visibility 6.2 miles    
Events Snow    
T = Trace of Precipitation, MM = Missing Value Source: Averaged Metar Reports

Daily Weather History Graph

Daily Weather History Graph

Search for Another Location

Airport or City:

Trip Planner

Search our weather history database for the weather conditions in past years. The results will help you decide how hot, cold, wet, or windy it might be!

Date:

Astronomy

Mar. 05, 2013 Rise Set
Actual Time 5:35 AM EET 5:03 PM EET
Civil Twilight 5:08 AM EET 5:30 PM EET
Nautical Twilight 4:36 AM EET 6:02 PM EET
Astronomical Twilight 4:04 AM EET 6:34 PM EET
Moon 12:26 AM EET (3/5) 10:19 AM EET (3/5)
Length of Visible Light 12h 22m
Length of Day
11h 28m
Last Quarter, 44% of the Moon is Illuminated
Mar 5
Last Quarter
Mar 11
New
Mar 19
First Quarter
Mar 27
Full
Apr 3
Last Quarter

Hourly Weather History & Observations

Time (EET) Temp. Windchill Dew Point Humidity Pressure Visibility Wind Dir Wind Speed Gust Speed Precip Events Conditions
12:50 AM 26.6 °F - 24.8 °F 93% 29.80 in 6.2 mi Calm Calm - N/A   Mostly Cloudy
1:50 AM 24.8 °F 16.9 °F 24.8 °F 100% 29.80 in 6.2 mi NNW 6.9 mph - N/A   Mostly Cloudy
2:00 AM 26 °F - 25 °F 96%  in 6 mi NNW 6.9 mph - -   Partly Cloudy
2:50 AM 24.8 °F 19.1 °F 23.0 °F 93% 29.80 in 6.2 mi North 4.6 mph - N/A   Mostly Cloudy
3:50 AM 26.6 °F 17.5 °F 17.6 °F 69% 29.80 in 6.2 mi North 9.2 mph - N/A   Mostly Cloudy
4:50 AM 24.8 °F - 17.6 °F 74% 29.83 in 6.2 mi Variable 2.3 mph - N/A   Mostly Cloudy
5:15 AM 24.8 °F 15.3 °F 17.6 °F 74% 29.83 in 6.2 mi North 9.2 mph - N/A Snow Light Snow
5:50 AM 24.8 °F 13.4 °F 15.8 °F 69% 29.83 in 6.2 mi North 12.7 mph - N/A   Mostly Cloudy
6:50 AM 24.8 °F 13.4 °F 14.0 °F 64% 29.83 in 6.2 mi North 12.7 mph - N/A   Mostly Cloudy
7:50 AM 24.8 °F 14.0 °F 15.8 °F 69% 29.86 in 6.2 mi North 11.5 mph - N/A   Mostly Cloudy
8:00 AM 24 °F - 15 °F 57%  in 6 mi North 11.5 mph - -   Partly Cloudy
8:50 AM 26.6 °F 21.2 °F 14.0 °F 59% 29.86 in 6.2 mi Variable 4.6 mph - N/A   Mostly Cloudy
9:50 AM 26.6 °F 16.2 °F 14.0 °F 59% 29.86 in 6.2 mi North 11.5 mph - N/A   Mostly Cloudy
10:50 AM 26.6 °F 14.7 °F 15.8 °F 64% 29.86 in 6.2 mi NNW 15.0 mph - N/A   Mostly Cloudy
11:50 AM 26.6 °F 12.7 °F 15.8 °F 64% 29.83 in 6.2 mi NNW 20.7 mph 32.2 mph N/A   Mostly Cloudy
12:50 PM 24.8 °F 9.6 °F 15.8 °F 69% 29.83 in 6.2 mi North 23.0 mph - N/A   Mostly Cloudy
1:50 PM 24.8 °F 10.0 °F 14.0 °F 64% 29.83 in 6.2 mi North 21.9 mph - N/A   Mostly Cloudy
2:00 PM 25 °F - 15 °F 52%  in 6 mi North 21.9 mph - -   Mostly Cloudy
2:50 PM 23.0 °F 6.6 °F 12.2 °F 63% 29.83 in 6.2 mi NNW 25.3 mph 39.1 mph N/A   Mostly Cloudy
3:50 PM 21.2 °F 4.2 °F 12.2 °F 68% 29.86 in 6.2 mi NNW 25.3 mph 41.4 mph N/A   Mostly Cloudy
4:50 PM 19.4 °F 1.1 °F 12.2 °F 74% 29.89 in 6.2 mi North 27.6 mph 44.9 mph N/A   Mostly Cloudy
5:50 PM 19.4 °F 7.2 °F 8.6 °F 63% 29.95 in 6.2 mi North 11.5 mph 25.3 mph N/A   Mostly Cloudy
6:50 PM 17.6 °F 3.7 °F 8.6 °F 68% 29.95 in 6.2 mi East 13.8 mph - N/A   Mostly Cloudy
7:50 PM 17.6 °F 5.0 °F 6.8 °F 63% 29.98 in 6.2 mi North 11.5 mph - N/A   Mostly Cloudy
8:00 PM 18 °F - 8 °F 50%  in 6 mi North 11.5 mph - -   Partly Cloudy
8:50 PM 15.8 °F 4.2 °F 6.8 °F 68% 30.01 in 6.2 mi NE 9.2 mph - N/A   Mostly Cloudy
9:50 PM 17.6 °F 6.4 °F 5.0 °F 58% 30.01 in 6.2 mi Variable 9.2 mph 21.9 mph N/A   Mostly Cloudy
10:50 PM 15.8 °F 2.7 °F 5.0 °F 62% 30.01 in 6.2 mi North 11.5 mph 23.0 mph N/A   Scattered Clouds
11:50 PM 14.0 °F 2.9 °F 5.0 °F 67% 30.01 in - North 8.1 mph - N/A   Clear